Location: *
(44.3526°S, 44.9014°W)
Time: 19:56:10
(UTC+00:00)

Cosmos 2026 Rocket - Pass Details

Date: 13 May 2025
Orbit: 937 x 1000 km, 82.9° (Epoch: 16 June)

Event Time Altitude Azimuth Distance (km) Brightness Sun altitude
Rises 20:28:56 0° 356° (N) 3,615 7.3 -8.2°
Reaches altitude 10° 20:31:25 10° 357° (N) 2,671 6.6 -8.7°
Maximum altitude 20:37:31 84° 83° (E) 962 3.9 -9.7°
Drops below altitude 10° 20:43:40 10° 171° (S) 2,687 6.1 -10.8°
Sets 20:46:10 0° 171° (S) 3,638 6.7 -11.2°
